Regional Weather Roundup
Issued by NWS

Home | Current Version | Previous Version | Text Only | Print | Product List | Glossary On
Versions: 1 2 3 4 5 6 7 8 9 10 11 12 13 14 15 16 17 18 19 20 21 22 23 24 25 26 27 28 29 30 31 32 33 34 35 36 37 38 39 40 41 42 43 44 45 46 47 48 49 50
000
ASUS43 KMKX 280210
RWRWI

WISCONSIN REGIONAL WEATHER ROUNDUP
NATIONAL WEATHER SERVICE MILWAUKEE/SULLIVAN WI
800 PM CST FRI FEB 27 2015

NOTE: "FAIR" INDICATES FEW OR NO CLOUDS BELOW 12,000 FEET WITH NO
SIGNIFICANT WEATHER AND/OR OBSTRUCTIONS TO VISIBILITY.

WIZ001-002-006>008-014>016-023>028-280300-
NORTHWEST WISCONSIN

CITY           SKY/WX    TMP DP  RH WIND       PRES   REMARKS
SUPERIOR ARPT  CLEAR     12  -3  50 SW8       30.45S WCI   0
ASHLAND        CLEAR     10  -6  48 SW9       30.45R WCI  -3
HAYWARD        CLEAR      0  -9  65 S3        30.44R
SIREN          CLEAR      7  -4  58 SW5       30.48S WCI  -2
CUMBERLAND     CLEAR      5  -4  66 SW10      30.47R WCI -10
RICE LAKE      CLEAR      8  -2  63 SW5       30.50R WCI  -1
CHETEK         CLEAR      7  -2  65 S6        30.50R WCI  -3
LADYSMITH      CLEAR      5  -5  62 S5        30.48R WCI  -4
EAU CLAIRE     CLEAR      6  -4  63 SW6       30.52R WCI  -4
MENOMONIE      CLEAR      8  -2  64 SW6       30.53R WCI  -2
NEW RICHMOND   CLEAR      7  -2  67 SW8       30.51R WCI  -6
OSCEOLA        CLEAR      9   0  66 S6        30.53S WCI  -1
$$

WIZ003>005-009-010-017-018-280300-
NORTH CENTRAL WISCONSIN

CITY           SKY/WX    TMP DP  RH WIND       PRES   REMARKS
MANITOWISH WTR CLEAR      6 -11  45 SW5       30.39R WCI  -3
ARBOR VITAE    CLEAR      9  -7  48 SW5       30.40R WCI   1
WOODRUFF       CLEAR      9  -7  48 SW5       30.40R WCI   1
RHINELANDER    CLEAR      2  -8  63 SW6       30.41R WCI  -9
EAGLE RIVER    CLEAR      5 -10  51 W7        30.39R WCI  -7
LAND O LAKES   CLEAR      4  -7  59 SW6       30.38R WCI  -7
PHILLIPS       CLEAR      6  -8  53 SW5       30.42R WCI  -3
TOMAHAWK       CLEAR      3  -6  65 CALM      30.44R
MEDFORD        CLEAR      4  -5  65 SW5       30.45R WCI  -5
MERRILL        CLEAR      4  -6  64 SW3       30.46R
$$

WIZ029-030-035-036-043>047-280300-
CENTRAL WISCONSIN

CITY           SKY/WX    TMP DP  RH WIND       PRES   REMARKS
WAUSAU         CLEAR      7  -4  60 CALM      30.47R
MOSINEE        NOT AVBL
MARSHFIELD     CLEAR      6  -6  57 W7        30.48R WCI  -6
STEVENS POINT  CLEAR      2  -7  65 CALM      30.50S
WAUPACA        CLEAR     11  -5  48 SW6       30.53R WCI   1
WAUTOMA        CLEAR      7  -7  52 SW6       30.55R WCI  -3
WISC RAPIDS    CLEAR      9  -9  44 SW6       30.53R WCI  -1
CAMP DOUGLAS   CLEAR      7  -6  56 SW6       30.55R WCI  -3
$$

WIZ011>013-019>022-031-037>040-048>050-280300-
NORTHEAST WISCONSIN

CITY           SKY/WX    TMP DP  RH WIND       PRES   REMARKS
ANTIGO         CLEAR      3  -6  66 W8        30.43R WCI -10
SHAWANO        CLEAR     13  -5  44 SW5       30.51R WCI   5
OCONTO         CLEAR     10  -6  48 SW6       30.51R WCI   1
STURGEON BAY   CLEAR     10  -6  48 SW7       30.52R WCI   0
GREEN BAY      CLEAR     12  -2  53 SW6       30.52R WCI   3
MANITOWOC      CLEAR     11   0  61 SW8       30.55  WCI  -1
APPLETON       CLEAR     10  -6  48 SW7       30.52R WCI   0
CLINTONVILLE   CLEAR     10  -6  48 SW5       30.51R WCI   2
OSHKOSH        CLEAR     11  -3  53 SW7       30.54R WCI   0
$$

WIZ032>034-041-042-053>061-280300-
SOUTHWEST WISCONSIN

CITY           SKY/WX    TMP DP  RH WIND       PRES   REMARKS
LA CROSSE      CLEAR      5  -6  60 S8        30.59R WCI  -8
SPARTA         CLEAR      2  -8  63 CALM      30.57R
VIROQUA        CLEAR      2  -6  69 SW6       30.52S WCI  -9
BOSCOBEL       CLEAR      4  -7  60 SW6       30.61R WCI  -7
PRAIRIE DU CHI PTCLDY     3  -7  61 CALM      30.62R
PLATTEVILLE    PTCLDY    -1  -9  69 S8        30.59R WCI -16
$$

WIZ056-057-062-063-064-067-068-280300-
SOUTH CENTRAL WISCONSIN

CITY           SKY/WX    TMP DP  RH WIND       PRES   REMARKS
REEDSBURG      CLEAR      9  -4  54 SW6       30.56R WCI   0
BARABOO/DELLS  CLEAR      7  -5  57 SW6       30.55R WCI  -3
LONE ROCK      CLEAR      7  -6  55 W3        30.60R
MINERAL POINT  CLEAR      5  -8  56 SW7       30.56R WCI  -7
MADISON        CLEAR      6  -6  57 SW3       30.58R
MIDDLETON      CLEAR      7  -7  52 CALM      30.58R
WATERTOWN      CLEAR      6  -4  62 SW6       30.58R WCI  -4
MONROE         CLEAR      5  -4  66 SW7       30.57R WCI  -7
JANESVILLE     CLEAR      3  -8  60 S12       30.61R WCI -13
$$

WIZ051-052-058>065-066-070>072-280300-
SOUTHEAST WISCONSIN

CITY           SKY/WX    TMP DP  RH WIND       PRES   REMARKS
MILWAUKEE      CLEAR      9  -6  50 SW8       30.60R WCI  -3
WAUKESHA       NOT AVBL
MILWAUKEE/TIMM CLEAR     10  -6  48 SW8       30.59R WCI  -1
RACINE         CLEAR      7  -7  52 SW8       30.63R WCI  -6
BURLINGTON     CLEAR      2  -7  65 SW3       30.61R
KENOSHA        CLEAR      2  -8  63 SW7       30.61R WCI -11
FOND DU LAC    CLEAR     10  -3  55 SW9       30.55R WCI  -3
SHEBOYGAN      CLEAR      7  -3  64 SW7       30.56R WCI  -5
WEST BEND      CLEAR      9  -4  56 SW6       30.56S WCI  -1
JUNEAU         CLEAR      6  -4  64 SW8       30.57R WCI  -7
$$

LSZ147-162-280300-
LAKE SUPERIOR

STATION/POSITION TIME  TEMP    WIND        PRES    WAVE
                       AIR SEA DIR/SP/G            HT/PER
                 (UTC) (F)     (DEG/KT/KT) (MB)    (FT/S)
DEVILS ISLAND    0200   15     210/ 12/ 16 1031.5R
PORT WING        0100   16     190/  8/ 10 1030.1R
SAXON HARBOR     0100    9      CALM  /  3 1030.5
$$

LMZ867-665-643>646-280300-
LAKE MICHIGAN

STATION/POSITION TIME  TEMP    WIND        PRES    WAVE
                       AIR SEA DIR/SP/G            HT/PER
                 (UTC) (F)     (DEG/KT/KT) (MB)    (FT/S)
NORTHPORT PIER   0100   14     220/  4/ 11 1031.8R
SISTER BAY       0143   14     230/ 12/ 14   N/A
KEWAUNEE LAKESHO 0100   15     220/  6/ 10 1032.3R
SHEBOYGAN LAKESH 0200   14     230/  9/ 10 1036.9R
PORT WASHINGTON  0140   12     250/  7/  9 1036.2R
MILWAUKEE LAKESH 0100   13     230/ 12/ 14   N/A
KENOSHA   LAKESH 0200   10     230/  6/ 11 1036.6R
$$

TC  - TEMPERATURE IN CELSIUS
VSB - VISIBILITY IN STATUTE MILES
WCI - WIND CHILL INDEX
HX  - HEAT INDEX




USA.gov is the U.S. government's official web portal to all federal, state and local government web resources and services.